カタログに戻る

STARLINK-36725

運用中通信VLEO
NORAD 68285·PAYLOAD·🇺🇸 United States

打ち上げ Mar 19, 2026 から Vandenberg Space Force Base

Loading…

次のパス (今後24時間)

TLE

最新Source: CelesTrak SupGP

元期: Sep 14, 2026, 22:41 UTC

1 68285C 26055Z   26257.94562500 -.00048635  00000+0 -14368-2 0  2578
2 68285  53.1562 157.7009 0001298  86.7140 213.9686 15.34418220    14

AllMySatでSTARLINK-36725をリアルタイム追跡

Download on the App Store